COSMOS 2400

导读 | 星芒AI

COSMOS 2400 是俄罗斯于2006年发射的一颗军用通信卫星,由“联盟”号火箭从普列谢茨克航天发射场送入轨道。该卫星属于俄罗斯的军事通信系统,用于支持战略指挥和控制通信。其具体任务和功能未完全公开,但据推测,它具备中继通信能力,可增强俄军在不同作战区域间的通信联络。作为俄罗斯空间力量的重要组成部分,COSMOS 2400 在国家安全和军事行动中发挥关键作用。

基本信息
目录编号:
27868
目录名称:
COSMOS 2400
国际标识:
2003-037A
轨道中心:
EARTH
卫星名称:
COSMOS 2400
卫星全名:
--
卫星状态:
在轨 (已飞行8113 天)
发射日期:
2003-08-19 UTC
国别 :
俄罗斯(独联体) (CIS)
星等 :
--
轨道信息
数据来源 国际轨道数据 AOE轨道数据
星历时间 2025-11-04T19:45:56+0800
6小时前
查看轨道信息
2025-11-04T06:00:00+0800
20小时前
查看轨道信息
半长轴 7862.838km 7862.838km
偏心率 0.0021552 0.002138
轨道倾角 82.466° 82.467°
近地点辐角 185.280° 186.542°
升交点赤经 110.755° 111.115°
平近点角 174.805° 123.697°
近地点 1467.757km 1467.892km
远地点 1501.649km 1501.514km
周期 115.645分钟 115.645分钟
每日圈数 12.451849 12.451847
详细信息
使用方式:
暂无
2D轨道图
3D轨道图
轨道高度分析图
轨道倾角分析图
轨道综合分析图
查看轨道综合分析图